Weather observations for the past three days for
La Grange, Fayette Regional Air Center Airport
Imperial (Metric)
Date Time (cdt) Wind (mph) Vis. (mi.) Weather Sky Cond. Temperature (ºF) Relative Humidity Wind Chill (°F) Heat Index (°F) Pressure Precipitation (in)
Air Dwpt 6 hour altimeter (in) sea level (mb) 1 hr 3 hr 6 hr
Max. Min.
13 15:35 Vrbl 3 10.00 Overcast OVC046 90.5 78.1 67% 105 29.9 0.0
13 15:15 NE 5 10.00 Mostly Cloudy BKN047 90.7 77.4 65% 105 29.9 0.0
13 14:55 Vrbl 3 10.00 Partly Cloudy SCT046 90.3 76.5 64% 103 29.9 0.0
13 14:35 E 5 10.00 Partly Cloudy SCT044 SCT350 SCT380 90.3 77.7 67% 105 29.91 0.0
13 14:15 Calm 10.00 Partly Cloudy FEW044 SCT350 SCT380 90 76.1 64% 102 29.92 0.0
13 13:55 Calm 10.00 A Few Clouds FEW230 89.6 76.5 65% 102 29.92 0.0
13 13:35 Calm 10.00 A Few Clouds FEW320 89.4 77.2 67% 102 29.92 0.0
13 13:15 Calm 10.00 A Few Clouds FEW036 88.7 77 68% 101 29.93 0.0
13 12:55 Calm 10.00 Partly Cloudy SCT036 87.1 77.5 88.7 74.3 73% 100 29.94 0.0
13 12:35 Vrbl 3 10.00 A Few Clouds FEW047 88.5 79.5 75% 105 29.95 0.0
13 12:15 NE 3 10.00 Mostly Cloudy FEW030 BKN047 BKN080 86.7 79.2 78% 101 29.95 0.0
13 11:55 Calm 10.00 Partly Cloudy SCT075 86.4 79.3 80% 101 29.95 0.0
13 11:35 Calm 10.00 Mostly Cloudy FEW027 SCT038 BKN075 86 79.9 82% 101 29.95 0.0
13 11:15 Calm 10.00 Mostly Cloudy SCT027 SCT040 BKN065 84.6 79.3 84% 97 29.95 0.0
13 10:55 Calm 10.00 Mostly Cloudy FEW021 BKN026 BKN070 83.7 80.2 89% 97 29.95 0.0
13 10:35 Calm 10.00 Partly Cloudy SCT020 SCT030 83.7 80.2 89% 97 29.95 0.0
13 10:15 Calm 10.00 A Few Clouds FEW033 82.9 79.9 91% 95 29.95 0.0
13 09:55 Calm 10.00 A Few Clouds FEW015 82.6 80.1 92% 94 29.96 0.0
13 09:35 Vrbl 3 10.00 Fair CLR 81.9 80.2 95% 92 29.96 0.0
13 09:15 E 3 10.00 Fair CLR 80.6 80.2 99% 89 29.95 0.0
13 08:55 NE 3 10.00 Fair CLR 79.3 79.3 100% 85 29.95 0.0
13 08:35 NE 3 9.00 Fair CLR 78.4 78.4 100% 82 29.95 0.0
13 08:15 NE 5 9.00 A Few Clouds FEW065 76.8 76.8 100% 77 29.94 0.0
13 07:55 Calm 8.00 Fair CLR 75.7 75.7 100% 74 29.93 0.0
13 07:35 Calm 5.00 Fog/Mist FEW060 75 75 100% 72 29.93 0.0
13 07:15 Calm 5.00 Fog/Mist BKN060 74.5 74.5 100% 29.92 0.0
13 06:55 N 3 6.00 Fog/Mist FEW060 74.1 74.1 77 73.9 100% 29.91 0.0
13 06:35 Calm 4.00 Fog/Mist CLR 74.1 74.1 100% 29.91 0.0
13 06:15 Calm 5.00 Fog/Mist CLR 74.3 74.3 100% 29.9 0.0
13 05:55 Calm 6.00 Fog/Mist CLR 74.3 74.3 100% 29.9 0.0
13 05:35 Calm 2.00 Fog/Mist CLR 74.1 74.1 100% 29.89 0.0
13 05:15 Calm 8.00 Fair CLR 74.5 74.5 100% 29.89 0.0
13 04:55 Calm 9.00 Fair CLR 74.7 74.7 100% 29.88 0.0
13 04:35 Calm 10.00 Fair CLR 74.8 74.8 100% 29.88 0.0
13 04:15 Calm 10.00 Fair CLR 75 75 100% 72 29.87 0.0
13 03:55 Calm 10.00 Fair CLR 75.2 75.2 100% 73 29.87 0.0
13 03:35 Calm 10.00 Fair CLR 75.2 75.2 100% 73 29.87 0.0
13 03:15 Calm 9.00 Fair CLR 75.6 75.6 100% 74 29.87 0.0
13 02:55 Calm 10.00 Fair CLR 75.7 75.7 100% 74 29.88 0.0
13 02:35 Calm 10.00 Fair CLR 75.9 75.9 100% 75 29.88 0.0
13 02:15 Calm 10.00 Fair CLR 76.5 76.5 100% 76 29.89 0.0
13 01:55 Calm 10.00 Fair CLR 76.6 76.6 100% 77 29.89 0.0
13 01:35 Calm 10.00 Fair CLR 76.8 76.8 100% 77 29.89 0.0
13 01:15 Calm 10.00 Fair CLR 76.8 76.8 100% 77 29.9 0.0
13 00:55 Calm 10.00 Fair CLR 76.6 76.6 86.2 76.6 100% 77 29.91 0.0
13 00:35 Calm 9.00 Fair CLR 77 77 100% 78 29.91 0.0
13 00:15 Calm 9.00 Fair CLR 77.7 77.7 100% 80 29.91 0.0
12 23:55 Calm 10.00 Fair CLR 78.3 78.3 100% 81 29.91 0.0
12 23:35 Calm 10.00 Fair CLR 78.6 78.6 100% 83 29.91 0.0
12 23:15 Calm 10.00 Fair CLR 78.4 78.4 100% 82 29.91 0.0
12 22:55 Calm 10.00 Fair CLR 78.1 78.1 100% 81 29.9 0.0
12 22:35 Calm 10.00 Fair CLR 78.6 78.6 100% 83 29.9 0.0
12 22:15 Calm 10.00 Fair CLR 78.8 78.8 100% 83 29.89 0.0
12 21:55 Calm 10.00 Fair CLR 79.9 79 97% 86 29.89 0.0
12 21:35 Calm 9.00 Fair CLR 80.1 79.5 98% 87 29.89 0.0
12 21:15 Calm 10.00 Fair CLR 80.2 79.9 99% 88 29.88 0.0
12 20:55 Calm 9.00 Fair CLR 82.2 77.9 87% 91 29.88 0.0
12 20:35 E 3 10.00 Fair CLR 82.8 78.3 86% 93 29.88 0.0
12 20:15 E 3 10.00 Fair CLR 83.7 77.9 83% 94 29.88 0.0
12 19:55 E 5 10.00 Fair CLR 84.9 78.3 81% 97 29.88 0.0
12 19:35 SE 6 10.00 Fair CLR 85.5 78.3 79% 98 29.87 0.0
12 19:15 E 6 10.00 Fair CLR 85.6 77.9 78% 98 29.87 0.0
12 18:55 E 6 10.00 Partly Cloudy FEW032 SCT042 86.2 79 87.4 76.1 79% 100 29.87 0.0 0.32
12 18:35 SE 8 10.00 A Few Clouds FEW031 87.1 79.2 77% 102 29.88 0.0
12 18:15 Vrbl 3 10.00 Fair CLR 87.3 77.4 73% 100 29.88 0.0
12 17:55 S 5 10.00 Fair CLR 87.1 78.8 76% 101 29.88 0.0
12 17:35 Calm 10.00 Fair CLR 86.9 78.8 77% 101 29.88 0.0
12 17:15 SE 3 10.00 A Few Clouds FEW029 86.5 79.2 79% 101 29.89 0.0
12 16:55 SE 6 10.00 A Few Clouds FEW027 86.7 80.4 82% 103 29.89 0.0
12 16:35 E 6 10.00 Fair CLR 86.9 79.9 80% 102 29.89 0.0
12 16:15 E 5 10.00 Fair CLR 86.2 80.2 83% 102 29.9 0.0
12 15:55 E 5 10.00 Fair CLR 85.1 80.8 87% 100 29.91 0.0 0.32
12 15:35 Calm 10.00 A Few Clouds FEW015 84 80.6 90% 98 29.91 0.0
12 15:15 E 3 10.00 Partly Cloudy SCT015 83.5 81.5 94% 98 29.92 0.0
12 14:55 Calm 10.00 Partly Cloudy FEW200 SCT350 82.2 81.1 97% 94 29.93 0.0 0.01
12 14:35 Vrbl 3 10.00 A Few Clouds FEW160 81.3 80.4 97% 91 29.93 0.0 0.01
12 14:15 Vrbl 5 10.00 Mostly Cloudy FEW007 SCT070 BKN160 BKN300 BKN340 79.9 79.9 100% 87 29.94 0.0 0.01
12 13:55 NE 3 3.00 Fog/Mist SCT070 77.7 77.7 100% 80 29.96 0.0 0.31
12 13:15 NW 6 2.00 Rain Fog/Mist OVC055 76.6 76.6 100% 77 29.97 0.0 0.22
12 12:55 Calm 1.50 Rain Fog/Mist FEW009 OVC065 77.4 77.4 82.8 75 100% 79 29.98 0.0 0.23 0.23
12 12:35 Calm 2.50 Rain Fog/Mist SCT008 OVC050 77.9 77.9 100% 80 29.98 0.0 0.18
12 12:15 NE 9 1.25 Heavy Rain Fog/Mist SCT009 BKN032 BKN060 78.8 78.8 100% 83 29.96 0.0 0.11
12 11:55 N 8 10.00 Thunderstorm in Vicinity FEW011 SCT028 BKN220 81 79.2 94% 89 29.96 0.0
12 11:35 NE 5 8.00 Overcast SCT011 BKN016 OVC029 79.7 77.9 94% 85 29.95 0.0
12 11:15 E 5 9.00 Mostly Cloudy BKN012 BKN043 BKN150 80.6 80.2 99% 89 29.95 0.0
12 10:55 Vrbl 5 10.00 Overcast OVC042 82.6 81.1 95% 95 29.95 0.0
12 10:35 NW 3 10.00 Mostly Cloudy BKN037 BKN120 82.2 80.8 95% 94 29.95 0.0
12 10:15 Calm 10.00 Overcast FEW016 BKN130 OVC150 82 80.6 95% 93 29.95 0.0
12 09:55 S 3 10.00 Overcast BKN018 BKN110 OVC130 81.9 80.4 95% 93 29.95 0.0
12 09:35 SE 3 10.00 Overcast BKN018 BKN030 OVC120 81.9 80.2 95% 92 29.95 0.0
12 09:15 SE 6 10.00 Overcast FEW019 SCT030 BKN041 OVC120 82.2 80.8 95% 94 29.94 0.0
12 08:55 SE 7 10.00 Mostly Cloudy FEW020 SCT032 BKN041 BKN150 80.4 79.9 98% 88 29.93 0.0
12 08:35 SE 5 10.00 Partly Cloudy FEW020 SCT085 SCT150 78.6 78.6 100% 83 29.93 0.0
12 08:15 E 3 9.00 Mostly Cloudy SCT018 SCT023 BKN034 BKN070 BKN085 77 77 100% 78 29.93 0.0
12 07:55 E 5 10.00 Mostly Cloudy BKN018 76.1 76.1 100% 75 29.93 0.0
12 07:35 E 3 10.00 Mostly Cloudy BKN018 BKN024 75.9 75.9 100% 75 29.92 0.0
12 07:15 Calm 10.00 A Few Clouds FEW120 75.4 75.4 100% 73 29.91 0.0
12 06:55 Calm 10.00 Mostly Cloudy BKN120 74.7 74.7 77.5 74.7 100% 29.9 0.0
12 06:35 Calm 10.00 Partly Cloudy SCT130 74.8 74.8 100% 29.9 0.0
12 06:15 Calm 10.00 Mostly Cloudy BKN130 74.8 74.8 100% 29.9 0.0
12 05:55 SE 3 10.00 Mostly Cloudy BKN130 74.8 74.8 100% 29.89 0.0
12 05:35 Calm 10.00 Partly Cloudy SCT140 75.2 75.2 100% 73 29.89 0.0
12 05:15 Calm 10.00 Partly Cloudy SCT130 75.4 75.4 100% 73 29.89 0.0
12 04:55 Calm 10.00 Mostly Cloudy BKN130 75.4 75.4 100% 73 29.89 0.0
12 04:35 Calm 10.00 Partly Cloudy SCT130 75.4 75.4 100% 73 29.89 0.0
12 04:15 Calm 10.00 Fair CLR 75.7 75.7 100% 74 29.89 0.0
12 03:55 Calm 10.00 Mostly Cloudy BKN100 75.9 75.9 100% 75 29.89 0.0
12 03:35 Calm 10.00 Mostly Cloudy BKN100 76.1 76.1 100% 75 29.89 0.0
12 03:15 SE 5 10.00 Mostly Cloudy BKN110 76.5 76.5 100% 76 29.88 0.0
12 02:55 E 3 10.00 Mostly Cloudy BKN110 76.5 76.5 100% 76 29.89 0.0
12 02:35 Calm 10.00 Overcast SCT028 OVC110 76.8 76.8 100% 77 29.89 0.0
12 02:15 E 3 10.00 Overcast SCT029 OVC110 76.8 76.8 100% 77 29.89 0.0
12 01:55 E 3 10.00 Partly Cloudy SCT110 76.5 76.5 100% 76 29.88 0.0
12 01:35 SE 3 10.00 A Few Clouds FEW030 76.8 76.8 100% 77 29.88 0.0
12 01:15 E 3 10.00 Mostly Cloudy FEW025 SCT030 BKN039 77.4 76.8 98% 79 29.88 0.0
12 00:55 Vrbl 3 10.00 A Few Clouds FEW270 77.4 76.8 79.9 77.4 98% 79 29.88 0.0
12 00:35 E 3 10.00 Partly Cloudy SCT270 77.7 76.6 97% 80 29.88 0.0
12 00:15 Calm 10.00 Mostly Cloudy SCT028 BKN037 BKN250 BKN280 78.3 76.6 95% 81 29.88 0.0
11 23:55 SE 5 10.00 Overcast BKN029 OVC036 78.8 76.5 93% 83 29.88 0.0
11 23:35 E 6 10.00 Mostly Cloudy SCT029 BKN036 79 76.6 93% 83 29.88 0.0
11 23:15 E 3 10.00 Partly Cloudy SCT280 78.4 76.3 93% 82 29.88 0.0
11 22:55 E 6 10.00 Mostly Cloudy FEW050 BKN280 78.6 76.3 93% 82 29.87 0.0
11 22:35 E 7 10.00 Partly Cloudy SCT050 78.6 76.1 92% 82 29.87 0.0
11 22:15 NE 7 10.00 Partly Cloudy SCT250 78.4 76.8 95% 82 29.87 0.0
11 21:55 NE 3 10.00 Overcast FEW050 OVC240 78.1 77.5 98% 81 29.86 0.0
11 21:35 N 5 10.00 Overcast OVC240 78.3 77.7 98% 81 29.85 0.0
11 21:15 NE 5 10.00 Mostly Cloudy BKN250 78.3 77.4 97% 81 29.84 0.0
11 20:55 NE 5 10.00 A Few Clouds FEW230 78.1 77.2 97% 81 29.84 0.0
11 20:35 N 6 10.00 Fair CLR 78.4 77 95% 82 29.84 0.0
11 20:15 Vrbl 5 10.00 Fair CLR 79 77.4 95% 83 29.83 0.0
11 19:55 NE 7 9.00 Fair CLR 79.5 78.6 97% 85 29.83 0.0
11 19:35 NE 7 10.00 A Few Clouds FEW160 79.7 78.8 97% 86 29.82 0.0
11 19:15 N 8 10.00 Partly Cloudy FEW160 SCT230 79.7 78.4 96% 86 29.81 0.0
11 18:55 Calm 7.00 Partly Cloudy FEW110 SCT130 78.8 78.6 92.8 78.8 99% 83 29.8 0.0
11 18:35 N 5 8.00 Light Rain FEW110 BKN130 79.3 78.1 96% 84 29.81 0.0
11 18:15 N 8 7.00 Light Rain FEW065 BKN130 80.1 77.5 92% 86 29.82 0.0
11 17:55 N 9 G 20 10.00 Overcast BKN060 BKN085 OVC150 81.1 75.9 84% 88 29.82 0.0
11 17:35 N 15 G 25 10.00 Mostly Cloudy SCT060 BKN085 83.3 74.8 76% 91 29.82 0.0
11 17:15 Vrbl 5 9.00 Mostly Cloudy SCT060 BKN140 92.3 72.9 53% 101 29.81 0.0
11 16:55 E 3 8.00 Partly Cloudy FEW055 SCT140 90.9 75.2 60% 102 29.81 0.0
11 16:35 E 8 9.00 Partly Cloudy SCT055 92.7 75.9 58% 105 29.8 0.0
11 16:15 Vrbl 3 8.00 Fair CLR 92.3 74.8 57% 103 29.81 0.0
11 15:55 E 5 8.00 A Few Clouds FEW060 92.1 75.4 58% 104 29.82 0.0
11 15:35 SE 6 9.00 A Few Clouds FEW065 91.9 76.6 61% 105 29.81 0.0
11 15:15 Vrbl 5 10.00 A Few Clouds FEW048 91.8 75.6 59% 104 29.82 0.0
11 14:55 Calm 10.00 A Few Clouds FEW360 91.4 76.6 62% 104 29.82 0.0
11 14:35 Vrbl 3 9.00 A Few Clouds FEW340 91 77.2 64% 105 29.83 0.0
11 14:15 Calm 10.00 A Few Clouds FEW370 90.7 76.5 63% 103 29.84 0.0
11 13:55 S 3 10.00 Mostly Cloudy SCT041 SCT049 BKN340 BKN370 90.1 77.5 67% 104 29.85 0.0
11 13:35 NE 3 10.00 Mostly Cloudy BKN041 BKN049 88.9 76.5 67% 101 29.86 0.0
11 13:15 NW 5 10.00 Partly Cloudy FEW039 SCT340 89.8 77.2 67% 103 29.87 0.0
11 12:55 Calm 10.00 Partly Cloudy SCT039 88 77.4 88.5 72.5 71% 101 29.87 0.0
11 12:35 Calm 10.00 A Few Clouds FEW038 88.3 77.4 70% 101 29.88 0.0
11 12:15 Calm 10.00 A Few Clouds FEW032 87.8 77.2 71% 100 29.88 0.0
11 11:55 Calm 10.00 A Few Clouds FEW030 86.9 77.7 74% 99 29.89 0.0
11 11:35 Vrbl 3 10.00 A Few Clouds FEW029 86.9 78.8 77% 101 29.89 0.0
11 11:15 Vrbl 3 10.00 Partly Cloudy FEW025 SCT041 85.5 79 81% 99 29.88 0.0
11 10:55 S 6 10.00 Mostly Cloudy BKN024 85.3 79.9 84% 100 29.89 0.0
11 10:35 Calm 10.00 Mostly Cloudy BKN022 BKN037 84.6 79.5 85% 98 29.89 0.0
11 10:15 S 5 10.00 A Few Clouds FEW020 83.8 79.3 86% 96 29.9 0.0
11 09:55 Calm 9.00 Fair CLR 82.4 78.6 88% 92 29.9 0.0
11 09:35 SE 5 10.00 Fair CLR 82.2 79.7 92% 93 29.89 0.0
11 09:15 SE 3 10.00 Fair CLR 80.2 78.8 95% 87 29.88 0.0
11 08:55 Calm 10.00 Fair CLR 78.6 78.4 99% 83 29.89 0.0
11 08:35 Calm 10.00 Partly Cloudy SCT027 77.5 77.5 100% 79 29.88 0.0
11 08:15 Calm 9.00 Mostly Cloudy BKN026 76.3 76.3 100% 76 29.87 0.0
11 07:55 Calm 10.00 Fair CLR 75 75 100% 72 29.86 0.0
11 07:35 Calm 9.00 Fair CLR 74.5 74.5 100% 29.86 0.0
11 07:15 Calm 9.00 Fair CLR 73.4 73.4 100% 29.86 0.0
11 06:55 Calm 9.00 Fair CLR 72.3 72.3 77 72.1 100% 29.85 0.0
11 06:35 Calm 8.00 Fair CLR 72.1 72.1 100% 29.85 0.0
11 06:15 Calm 9.00 Fair CLR 72.1 72.1 100% 29.85 0.0
11 05:35 Calm 10.00 Fair CLR 72.7 72.7 100% 29.85 0.0
11 05:15 Calm 10.00 Fair CLR 73 73 100% 29.85 0.0
11 04:55 Calm 10.00 Fair CLR 73 73 100% 29.85 0.0
11 04:35 Calm 10.00 Fair CLR 73.4 73.4 100% 29.85 0.0
11 04:15 NE 3 10.00 Fair CLR 73.6 73.6 100% 29.85 0.0
11 03:55 Calm 10.00 Fair CLR 73.8 73.8 100% 29.84 0.0
11 03:35 Calm 10.00 Fair CLR 73.9 73.9 100% 29.84 0.0
11 03:15 Calm 10.00 Fair CLR 74.3 74.3 100% 29.84 0.0
11 02:55 Calm 10.00 Fair CLR 74.7 74.7 100% 29.84 0.0
11 02:35 Calm 10.00 Fair CLR 74.8 74.8 100% 29.85 0.0
11 02:15 N 3 10.00 Fair CLR 75.4 75.4 100% 73 29.85 0.0
11 01:55 Calm 10.00 Fair CLR 75.6 75.6 100% 74 29.86 0.0
11 01:35 Calm 10.00 Fair CLR 76.3 75.7 98% 76 29.86 0.0
11 01:15 Calm 10.00 Fair CLR 76.8 75.7 96% 77 29.87 0.0
11 00:55 E 3 10.00 Fair CLR 77.4 75.6 90 77.4 94% 79 29.86 0.0
11 00:35 Calm 10.00 Fair CLR 77.7 75.7 94% 80 29.86 0.0
11 00:15 Calm 10.00 Fair CLR 77.9 75.4 92% 80 29.87 0.0
10 23:55 E 5 10.00 Fair CLR 79.3 75.9 89% 84 29.87 0.0
10 23:35 Vrbl 5 10.00 Fair CLR 79.2 76.1 90% 83 29.86 0.0
10 23:15 NE 3 10.00 Fair CLR 79 75 88% 83 29.84 0.0
10 22:55 Calm 10.00 Fair CLR 79.7 74.8 85% 84 29.83 0.0
10 22:35 E 5 10.00 Fair CLR 80.2 75 84% 85 29.83 0.0
10 22:15 E 3 10.00 A Few Clouds FEW050 81.3 75 81% 87 29.83 0.0
10 21:55 E 5 10.00 Mostly Cloudy BKN050 BKN070 82.8 74.3 76% 89 29.82 0.0
10 21:35 Vrbl 7 10.00 Partly Cloudy FEW050 SCT065 83.3 75.7 78% 91 29.81 0.0
10 21:15 E 6 10.00 Partly Cloudy SCT055 84.4 77.5 80% 95 29.79 0.0
10 20:55 E 3 10.00 Partly Cloudy SCT050 85.3 78.4 80% 98 29.79 0.0
10 20:35 Calm 10.00 Fair CLR 84.2 81.1 91% 99 29.79 0.0
10 20:15 Calm 10.00 Fair CLR 86.7 78.4 76% 100 29.78 0.0
10 19:55 Calm 10.00 A Few Clouds FEW050 87.6 78.8 75% 102 29.78 0.0
10 19:35 NE 3 10.00 Mostly Cloudy SCT050 BKN190 88.2 79.5 76% 104 29.77 0.0
10 19:15 Calm 10.00 Mostly Cloudy BKN190 89.8 77.2 67% 103 29.76 0.0
10 18:55 E 3 10.00 Fair CLR 88.9 76.3 91.9 87.4 66% 101 29.76 0.0
10 18:35 Vrbl 3 10.00 Fair CLR 89.8 75.7 63% 101 29.76 0.0
10 18:15 E 3 10.00 Fair CLR 91.6 74.5 57% 102 29.76 0.0
10 17:55 E 3 10.00 A Few Clouds FEW050 90.9 76.3 62% 103 29.76 0.0
10 17:35 Vrbl 6 10.00 A Few Clouds FEW049 91.9 76.1 60% 104 29.76 0.0
10 17:15 E 5 10.00 Partly Cloudy SCT049 90.9 76.5 63% 104 29.76 0.0
10 16:55 E 3 10.00 Partly Cloudy SCT049 90.9 76.1 62% 103 29.77 0.0
10 16:35 SE 6 10.00 Partly Cloudy SCT048 91.8 75.9 60% 104 29.78 0.0
10 16:15 SE 3 10.00 A Few Clouds FEW045 90.3 77.2 65% 104 29.78 0.0
10 15:55 Calm 10.00 A Few Clouds FEW044 90.7 76.5 63% 103 29.79 0.0
Date Time (cdt) Wind (mph) Vis. (mi.) Weather Sky Cond. Air Dwpt Max. Min. Relative Humidity Wind Chill (°F) Heat Index (°F) altimeter (in) sea level (mb) 1 hr 3 hr 6 hr
6 hour
Temperature (ºF) Pressure Precipitation (in)